CAPE
0 0 0 0 0 0 0 0 0 0 0 0 0 0 0 0 0 0 0 0 0 0 0 0 0 0 0 0 0 1 2 1 1 1 0 0 2 132
0 0 0 0 0 0 0 0 0 0 0 0 0 0 0 0 0 0 0 0 0 0 0 0 0 0 0 0 0 0 0 0 0 1 1 0 1 1
0 0 0 0 0 0 0 0 0 0 0 0 0 0 0 0 0 0 0 0 0 0 0 0 0 0 0 0 0 0 1 2 1 0 1 1 1 2
0 0 0 0 0 0 0 0 0 2 3 1 0 0 0 0 0 0 0 0 0 0 0 0 0 0 0 0 0 0 0 0 0 1 2 3 2 3
0 0 0 0 0 0 0 0 0 0 0 13 22 0 0 0 0 0 0 0 0 0 0 0 0 0 0 0 0 0 0 0 0 0 0 0 1 1
0 0 0 0 0 0 0 0 7 1 0 4 6 15 5 0 0 0 0 0 0 0 0 0 0 0 0 0 0 0 0 0 0 0 0 0 0 0
0 0 0 7 48 9 12 0 0 6 4 2 4 10 14 15 0 0 0 0 0 0 0 0 0 0 0 0 0 0 0 0 0 0 0 0 0 0
0 0 0 22 5 22 15 9 0 2 1 4 4 20 17 32 2 0 0 0 0 0 0 0 0 0 0 0 0 0 0 0 0 0 0 0 0 0
0 1 13 30 9 1 0 0 5 0 0 4 1 3 13 12 29 0 0 0 0 0 0 0 0 0 0 0 0 0 0 0 0 0 0 0 0 0
0 7 7 0 0 0 6 2 3 4 1 2 2 2 4 2 5 50 2 0 0 0 0 0 0 0 0 0 0 0 0 0 0 0 0 0 0 0
1 0 0 0 0 11 11 6 4 12 0 4 4 4 3 1 0 22 1 0 0 0 0 0 0 0 0 0 0 0 0 0 0 0 0 0 0 0
0 0 0 0 1 8 6 9 7 2 9 4 0 1 2 1 0 1 27 0 0 0 0 0 0 0 0 0 0 0 0 0 0 0 0 0 0 0
0 0 0 0 1 7 5 2 4 7 5 6 6 5 1 4 18 0 0 0 0 0 0 0 0 0 0 0 0 0 0 0 0 0 0 0 0 0
0 0 0 0 5 0 0 0 0 0 2 1 3 1 3 17 6 0 0 0 0 0 0 0 0 0 0 0 0 0 0 0 0 0 0 0 0 0
0 0 9 0 0 0 0 0 0 0 1 2 3 8 5 12 1 3 1 0 0 0 0 3 0 0 0 0 0 0 0 0 0 0 0 0 0 0
0 0 0 0 0 0 0 0 1 8 0 3 0 0 0 2 3 4 2 0 0 0 1 0 0 0 0 0 0 0 0 0 0 0 0 0 0 0
0 0 0 0 0 0 0 0 0 2 4 0 1 0 0 0 0 1 1 1 0 0 0 0 0 0 0 0 0 0 0 0 0 0 0 0 0 0
0 0 0 0 0 0 1 0 0 0 0 3 6 1 2 0 0 0 1 0 0 0 0 0 0 0 0 0 0 0 0 0 0 0 0 0 0 0
0 0 0 0 0 8 4 9 9 3 0 0 0 0 4 0 2 0 0 0 0 0 0 0 0 0 0 0 0 0 0 0 0 0 0 0 0 0
0 4 17 10 25 6 2 3 1 0 0 0 0 0 0 2 1 0 0 0 0 0 0 0 0 0 0 0 0 0 0 0 0 0 0 0 0 0
23 22 3 4 1 3 2 0 0 0 0 0 0 0 0 0 0 0 0 0 0 0 0 0 0 0 0 0 0 0 0 0 0 0 0 0 0 0
15 12 5 2 3 6 1 0 0 0 0 0 0 0 0 0 0 0 0 0 0 0 0 0 0 0 0 0 0 0 0 0 0 0 0 0 0 1
12 13 5 2 10 7 0 0 0 0 0 0 0 0 0 0 0 0 6 0 0 0 0 0 0 0 0 0 0 0 0 0 0 0 0 0 0 0
CIN
0 0 0 -3 0 0 0 0 0 0 0 0 0 0 0 0 0 0 0 0 0 0 0 0 0 0 0 0 0 0 0 0 0 0 0 0 0 -8
0 0 0 0 0 0 0 0 0 0 0 0 0 0 0 0 0 0 0 0 0 0 0 0 0 0 0 0 0 0 0 0 0 0 0 0 0 0
0 0 0 0 0 0 0 0 0 0 0 0 0 0 0 0 0 0 0 0 0 0 0 0 0 0 0 0 0 0 0 0 0 0 0 0 0 0
0 0 0 0 0 0 0 0 0 0 -1 -1 0 0 0 0 0 0 0 0 0 0 0 0 0 0 0 0 0 0 0 0 0 0 0 0 0 0
0 0 0 0 0 0 0 0 0 0 0 0 -8 0 0 0 0 0 0 0 0 0 0 0 0 0 0 0 0 0 0 0 0 0 0 0 0 0
0 0 0 0 0 0 0 -1 0 0 0 0 0 0 -4 0 0 0 0 0 0 0 0 0 0 0 0 0 0 0 0 0 0 0 0 0 0 0
0 0 0 -6 -5 -14 -6 0 0 -2 -1 -1 0 0 -1 -6 0 0 0 0 0 0 0 0 0 0 0 0 0 0 0 0 0 0 0 0 0 0
-32 0 0 -3 -11 -9 -9 -8 0 -12 -7 0 -1 0 0 0 -5 0 0 0 0 0 0 0 0 0 0 0 0 0 0 0 0 0 0 0 0 0
0 -9 -14 0 -18 -14 0 0 -8 0 0 0 0 0 -8 -10 -2 -4 0 0 0 0 0 0 0 0 0 0 0 0 0 0 0 0 0 0 0 0
0 -5 -7 0 0 0 -1 0 -1 -1 -1 0 0 -1 0 -1 -2 -1 0 0 0 0 0 0 0 0 0 0 0 0 0 0 0 0 0 0 0 0
-1 0 0 0 0 0 -1 0 0 -1 0 -1 -1 -1 -2 -1 0 -8 -1 0 0 0 0 0 0 0 0 0 0 0 0 0 0 0 0 0 0 0
0 0 0 0 0 0 -1 0 0 0 0 0 -1 0 -1 -1 0 -2 -1 0 0 0 0 0 0 0 0 0 0 -5 0 0 0 0 0 0 0 0
0 0 0 0 0 0 0 -1 0 0 -1 0 0 0 -1 0 -3 0 0 0 0 0 0 0 0 0 0 0 0 0 0 0 0 0 0 0 0 0
0 0 0 0 0 0 0 0 0 0 0 0 0 0 0 0 -1 0 0 0 0 0 0 0 0 0 0 0 0 0 0 0 0 0 0 0 0 0
0 0 0 0 0 0 0 0 0 0 0 0 0 0 0 -8 0 0 -1 0 0 0 0 -57 -17 0 0 0 0 0 0 0 0 0 0 0 0 0
0 0 0 0 0 0 0 0 -2 -1 0 0 0 0 0 0 0 0 0 0 0 0 -6 -2 0 0 0 0 0 0 0 0 0 0 0 0 0 0
0 0 0 0 0 0 0 0 0 -4 0 0 0 0 0 0 0 0 0 0 0 0 0 0 0 0 0 0 0 0 0 0 0 0 0 0 0 0
0 0 0 0 0 0 -3 0 0 0 0 -2 0 0 0 0 0 0 0 0 0 0 0 0 0 0 0 0 0 0 0 0 0 0 0 0 0 0
0 0 0 0 -1 -7 -4 -2 -2 -6 0 0 0 -1 0 0 0 0 0 0 0 0 0 0 0 0 0 0 0 0 0 0 0 0 0 0 0 0
0 -2 -2 -3 -2 -1 -3 -1 0 0 0 0 0 0 0 -4 -4 -3 0 -1 0 0 0 0 0 0 0 0 0 0 0 0 0 0 0 0 0 0
-1 -1 -2 -3 -2 -2 -4 0 0 0 0 0 0 0 0 0 0 0 0 0 0 0 0 0 0 0 0 0 0 0 0 0 0 0 0 0 0 0
0 0 -1 -1 -1 -1 -3 0 0 0 0 -1 0 0 0 0 0 -2 0 0 0 0 0 0 0 0 0 0 0 0 0 0 0 0 0 0 0 -1
0 0 -1 -1 -1 0 -2 0 0 0 0 0 0 0 0 0 0 0 -3 0 0 0 0 0 0 0 0 0 0 0 0 0 0 0 0 0 0 0
Wind_Speed
7 7 5 6 5 5 5 4 5 9 7 4 4 6 4 2 4 3 3 5 7 6 5 3 1 2 5 9 9 8 7 7 7 8 8 10 11 18
10 14 13 10 8 5 5 6 5 8 12 4 5 5 6 4 3 3 6 8 5 9 7 6 5 1 2 4 8 9 8 8 9 8 8 7 9 12
11 13 13 13 10 11 11 9 8 7 12 8 5 5 4 5 5 5 4 5 4 9 10 9 9 6 3 2 3 7 8 9 9 9 9 9 10 10
9 10 11 10 13 11 9 12 12 14 12 17 8 5 8 7 6 5 4 4 5 10 12 12 10 7 6 6 2 3 6 7 8 8 10 10 10 11
6 7 9 10 11 11 13 12 11 10 12 13 13 4 6 4 5 4 4 5 5 7 13 8 10 8 8 8 7 6 2 4 6 7 7 8 9 9
6 7 9 9 11 10 12 12 11 12 11 11 12 12 8 6 4 4 5 3 4 3 2 4 5 11 12 12 11 10 7 5 4 4 6 5 6 7
9 10 10 11 17 13 9 9 11 10 9 10 11 12 11 8 8 5 6 4 4 4 2 2 1 1 1 10 9 11 9 7 5 3 4 5 4 5
9 11 12 16 12 13 14 14 11 9 11 11 11 12 15 13 9 6 4 4 4 4 4 2 2 3 2 5 11 11 10 8 5 1 3 4 5 5
10 10 11 9 10 11 17 19 11 17 13 12 14 13 15 13 14 12 12 6 6 4 5 3 3 3 3 3 14 12 10 10 6 3 5 4 5 6
10 10 10 13 13 14 14 16 16 16 17 13 14 15 16 15 15 15 13 7 2 3 4 4 2 4 2 4 12 12 12 10 6 7 6 4 3 6
8 11 12 14 18 21 16 16 18 17 17 24 25 27 26 28 25 14 9 5 3 4 4 5 3 3 3 4 6 14 11 8 9 10 6 5 2 6
9 12 16 16 22 24 17 15 18 18 16 20 21 22 22 20 27 19 14 12 8 2 5 6 4 4 1 2 4 5 3 8 11 9 8 6 4 3
9 10 10 22 26 28 28 16 17 20 21 16 17 17 18 15 15 14 13 11 10 6 5 6 4 4 3 2 1 3 4 2 3 2 8 6 7 5
10 10 12 26 30 30 25 25 27 21 13 14 14 14 14 13 11 12 15 13 11 9 4 5 4 5 5 2 3 1 2 4 4 3 4 5 5 3
8 14 24 27 28 21 22 25 21 10 10 13 12 12 12 12 12 12 9 8 9 10 8 4 3 5 4 4 4 3 2 3 3 3 3 3 3 2
8 9 12 17 16 14 13 11 8 9 9 12 10 9 5 6 5 5 5 6 4 3 5 5 5 5 4 4 5 3 4 3 2 3 2 2 2 3
7 8 10 9 9 9 8 9 9 7 9 9 9 9 6 5 4 5 4 4 3 5 3 1 4 6 5 6 4 4 4 4 4 4 3 2 2 3
8 9 8 8 8 8 8 10 8 6 8 9 11 10 10 3 3 3 3 3 3 2 4 3 1 3 4 3 4 4 4 4 4 3 3 3 2 3
8 7 8 7 7 7 7 8 9 8 6 6 7 8 10 7 7 4 3 3 2 3 2 2 2 2 2 2 3 2 4 4 2 1 3 3 3 3
7 8 7 6 6 7 7 8 8 9 9 7 6 6 5 4 4 4 3 2 1 1 1 1 2 3 3 4 2 3 3 3 3 2 1 1 2 5
8 6 7 7 8 8 6 5 5 6 7 7 6 3 4 5 3 2 2 3 2 1 1 1 2 2 1 2 2 2 3 3 5 4 2 2 2 2
8 9 8 8 8 7 6 6 5 5 6 7 5 4 4 4 4 3 2 1 1 1 2 2 2 1 1 2 3 3 2 3 3 5 8 9 4 5
9 9 9 8 8 8 8 7 5 4 7 7 6 4 2 2 3 4 2 2 2 2 2 2 2 1 3 3 4 3 3 3 3 2 4 10 13 16
Wind_Direction
277 265 255 250 241 242 240 228 258 294 280 264 265 275 294 281 284 331 315 233 223 194 181 172 271 32 11 355 345 335 325 310 284 270 269 297 298 242
5 4 354 341 313 283 242 240 224 260 279 218 243 248 267 281 273 304 292 272 267 192 197 205 226 224 32 353 346 346 358 349 320 298 275 256 266 282
2 358 348 346 342 340 335 305 275 253 266 264 221 235 247 254 278 286 270 288 265 207 202 214 220 205 182 183 325 355 353 357 350 342 320 290 265 254
337 336 335 337 333 331 331 331 327 327 299 283 265 221 226 234 231 229 258 271 258 222 217 217 224 215 212 168 228 67 18 15 20 18 6 346 324 294
316 314 319 322 325 325 319 311 307 304 304 305 305 268 232 208 223 237 234 251 265 226 218 221 226 234 223 181 183 148 121 77 39 28 33 29 17 358
306 302 302 298 302 308 308 312 325 323 316 312 309 301 278 254 200 190 253 226 240 239 226 241 247 240 225 179 177 172 167 135 93 51 18 6 25 18
305 300 298 300 293 286 292 307 305 309 310 304 300 303 293 273 256 218 204 208 214 210 225 268 264 314 285 178 176 176 176 161 135 80 5 337 333 341
336 322 309 302 302 294 291 285 284 294 296 295 294 285 291 296 260 252 239 172 220 228 177 227 149 281 258 178 178 178 184 185 175 143 314 302 312 313
316 310 306 309 322 316 309 299 286 290 277 279 279 274 277 276 278 256 234 186 188 197 136 228 184 226 247 169 167 176 188 197 198 238 283 296 308 311
301 301 323 315 306 309 313 306 297 293 289 281 277 275 274 277 269 260 256 261 20 146 130 185 206 240 178 166 179 188 200 200 211 240 264 284 325 329
325 313 305 305 302 310 308 306 300 281 280 279 277 277 273 272 261 259 223 183 225 216 181 141 202 209 187 177 200 203 210 198 223 237 256 250 342 15
300 304 305 306 304 304 305 299 296 284 287 287 286 283 276 269 266 239 221 221 211 187 216 154 160 151 309 257 178 182 210 229 224 252 245 198 129 67
308 306 304 305 306 306 305 295 284 293 287 278 272 269 270 264 252 216 206 204 206 211 190 150 151 164 137 176 256 194 182 218 207 166 181 179 141 128
297 297 296 301 307 307 306 296 289 286 283 282 276 272 264 253 218 201 203 200 211 216 180 161 164 147 152 146 183 231 212 226 183 193 185 183 140 136
278 281 296 302 306 305 297 297 293 290 292 304 288 275 255 253 201 186 172 188 208 206 198 207 153 154 137 165 171 192 144 265 210 193 204 181 191 201
274 281 291 295 296 290 293 312 295 296 296 323 304 308 316 141 144 158 180 171 186 155 187 183 169 164 164 177 162 183 188 201 173 203 185 180 207 203
293 298 304 305 305 309 309 313 307 318 322 327 334 332 346 35 71 104 92 112 145 151 121 249 202 186 181 164 160 176 188 200 199 191 153 196 239 204
298 298 294 297 306 312 320 334 314 335 340 349 343 350 357 7 78 59 65 79 95 126 122 128 83 46 26 336 198 187 172 175 200 214 180 159 228 262
298 292 294 298 304 314 321 329 328 326 323 341 346 354 354 4 19 41 58 62 76 87 89 103 99 110 132 186 288 203 168 192 177 165 206 184 191 236
293 299 312 319 325 324 325 328 332 331 334 332 332 336 347 354 4 10 29 52 55 33 346 124 146 197 180 199 203 269 185 132 134 167 221 264 234 254
321 329 323 319 320 312 308 305 310 316 321 338 337 341 3 358 339 348 28 35 31 22 332 357 234 77 353 58 44 318 289 255 182 175 210 169 221 240
316 313 313 309 305 302 307 304 304 313 320 319 308 321 328 349 339 332 345 4 315 252 245 265 307 3 147 204 211 206 260 302 294 230 202 186 182 274
314 309 307 303 304 307 302 295 297 306 308 306 294 288 352 356 327 307 286 257 230 236 223 268 277 226 227 191 188 209 215 249 236 296 296 251 247 243